Regional Weather Roundup
Issued by NWS

Home | Current Version | Previous Version | Graphics & Text | Print | Product List | Glossary On
Versions: 1 2 3 4 5 6 7 8 9 10 11 12 13 14 15 16 17 18 19 20 21 22 23 24 25 26 27 28 29 30 31 32 33 34 35 36 37 38 39 40 41 42 43 44 45 46 47 48 49 50
000
ASUS43 KDMX 200106
RWRIA

WEATHER ROUNDUP FOR IOWA
NATIONAL WEATHER SERVICE DES MOINES IA
700 PM CST SUN FEB 19 2017

NOTE: "FAIR" INDICATES FEW OR NO CLOUDS BELOW 12,000 FEET WITH NO
SIGNIFICANT WEATHER AND/OR OBSTRUCTIONS TO VISIBILITY.

* - THESE STATIONS ARE NOT NWS STATIONS...THUS NOT UNDER NWS
QUALITY CONTROL.  THEY ALSO DO NOT REPORT WEATHER SUCH
AS PRECIPITATION OR FOG.

IAZ001>003-012>014-020>022-031>034-043>046-200200-
   NORTHWEST IOWA

CITY           SKY/WX    TMP DP  RH WIND       PRES   REMARKS
CARROLL *      MOCLDY    57  48  72 S9        29.84R
CHEROKEE *     CLOUDY    56  49  78 SE9       29.79S
DENISON *      CLOUDY    59  50  72 S12G20    29.79S
LE MARS *      CLOUDY    57  48  72 SE13      29.76S
SHELDON *      PTCLDY    54  52  94 S15       29.76R
SIOUX CITY     CLOUDY    61  51  70 SE10      29.75R
SPENCER        PTCLDY    54  48  80 S13       29.80R
STORM LAKE *   PTCLDY    54  48  82 S12       29.81R
$$

IAZ055>058-069>071-079>083-090>094-200200-
   SOUTHWEST IOWA

CITY           SKY/WX    TMP DP  RH WIND       PRES   REMARKS
ATLANTIC *     CLOUDY    61  50  67 S8        29.84S
CLARINDA *       N/A     64  52  63 SE7         N/A
COUNCIL BLFS * CLOUDY    61  54  77 SE8G15    29.81S
CRESTON *      CLOUDY    59  46  63 SE8       29.89S
HARLAN  *      CLOUDY    61  52  72 S12       29.85S
LAMONI         CLOUDY    64  48  56 SE8       29.89S
RED OAK *      CLOUDY    63  52  67 S10       29.84S
SHENANDOAH *   PTCLDY    61  52  72 SE9       29.84S
$$

IAZ047>049-059>061-072>074-084-200200-
   CENTRAL IOWA

CITY           SKY/WX    TMP DP  RH WIND       PRES   REMARKS
AMES           CLOUDY    61  49  64 S12       29.88R
ANKENY *       PTCLDY    59  46  63 S7        29.90R
BOONE *        CLOUDY    54  48  82 S6        29.87R
CHARITON *     CLOUDY    61  46  59 SE9       29.91R
DES MOINES     MOCLDY    63  47  55 S10       29.89R
GRINNELL*      PTCLDY    60  47  62 SE10      29.93S
KNOXVILLE *    PTCLDY    63  46  55 SE8       29.90R
MARSHALLTOWN   MOCLDY    60  46  59 SE12      29.90R
NEWTON *       MOCLDY    57  46  67 SE13      29.90S
PELLA *        MOCLDY    64  47  55 SE8       29.92R
PERRY *          N/A     52  44  74 SE10      29.87R
$$

IAZ004>006-015-016-023>025-035-036-200200-
   NORTH CENTRAL IOWA

CITY           SKY/WX    TMP DP  RH WIND       PRES   REMARKS
ALGONA *       PTCLDY    57  50  77 SE14      29.84R
CLARION *      CLOUDY    55  52  88 SE13      29.87R
ESTHERVILLE    CLOUDY    53  50  89 S14       29.81R
FORT DODGE *   CLOUDY    61  46  59 SE9       29.86R
MASON CITY     PTCLDY    53  46  77 SE14      29.88F
FOREST CITY *    N/A     54  46  76 SE10      29.87R
IOWA FALLS *     N/A     57  47  71 SE8       29.90R
$$

IAZ007>011-017>019-026>030-037>042-050>054-066-200200-
   NORTHEAST IOWA

CITY           SKY/WX    TMP DP  RH WIND       PRES   REMARKS
CEDAR RAPIDS   PTCLDY    58  45  62 SE6       29.94R
CHARLES CITY * CLOUDY    52  46  82 SE12      29.92S
CLINTON *      PTCLDY    53  41  63 SE10      30.00R
DECORAH *      CLOUDY    54  39  58 SE8       29.94R
DUBUQUE        CLOUDY    54  37  52 SE10      29.98S
MONTICELLO *   PTCLDY    52  39  62 SE7       29.97R
OELWEIN *      PTCLDY    52  43  71 MISG      29.95R
WATERLOO       PTCLDY    55  42  61 SE9       29.92S
$$

IAZ064-065-067-068-078-200200-
   EAST CENTRAL IOWA

CITY           SKY/WX    TMP DP  RH WIND       PRES   REMARKS
DAVENPORT      CLOUDY    58  42  55 SE13      29.99R
IOWA CITY      PTCLDY    59  45  59 SE5       29.97R
MUSCATINE *    PTCLDY    63  46  55 SE10      29.97S
QUAD CITIES    CLOUDY    60  43  53 SE12      29.99R
$$

IAZ062-063-075>077-085>089-095>099-200200-
   SOUTHEAST IOWA

CITY           SKY/WX    TMP DP  RH WIND       PRES   REMARKS
BURLINGTON     CLOUDY    63  47  55 SE7       29.97S
FAIRFIELD *    PTCLDY    61  46  59 SE9       29.95S
KEOKUK *       PTCLDY    64  46  52 S7        29.97R
OTTUMWA        PTCLDY    63  48  58 SE10      29.93S
WASHINGTON *   PTCLDY    61  46  59 S8        29.97R
$$

ABBREVIATIONS USED IN REMARKS
   TC - TEMPERATURES IN CELSIUS
  WCI - WIND CHILL INDEX
   HX - HEAT INDEX
  VSB - VISIBILITY
$$




USA.gov is the U.S. government's official web portal to all federal, state and local government web resources and services.